Notices

What's New in latest Release from April 7th, 2021:

- Updated Glossary, including Speed of Maximum Gust, and Total Hourly Precipitation

- Updated national and regional climate services offices contacts and prices information

- Addition of station inventory lists for 1981-2010, 1971-2000, and 1961-1990 Normals.

If you haven't already, please take our survey and provide feedback about our website: https://eccc.sondage-survey.ca/f/LanguageSelection.aspx?s=442ca660-fcf1-47c0-95a9-59707d6fd709

Hourly Data Report for November 22, 2004

SHERBROOKE A
QUEBEC

45°26'00.000" N
71°41'00.000" W
241.40 m
7028124
71610
YSC

Download Data

Hourly Data (November 2004)
Hourly Data Report for November 22, 2004
TIME
LST
Temp Definition
°C
Dew Point Definition
°C
Rel Hum Definition
%
Precip. Amount Definition
mm

Wind Dir Definition
10's deg

Wind Spd Definition
km/h
Visibility Definition
km
Stn Press Definition
kPa
Hmdx Definition


Wind Chill Definition


Weather Definition


00:00 2.7 2.1 96   19 4 6.4 99.12      
01:00 2.3 1.8 96   17 4 5.6 99.07      
02:00 1.9 1.3 96   24 4 3.7 99.07      
03:00 2.1 1.3 94   30 4 4.8 99.03      
04:00 2.2 1.6 96     0 3.1 99.00     Rain
05:00 2.4 1.8 96   22 6 6.4 98.98      
06:00 2.4 1.6 94   22 6 12.9 98.96      
07:00 2.4 1.4 93   21 6 15.0 98.96      
08:00 2.6 1.9 95   22 7 19.3 99.00     Cloudy
09:00 3.4 2.4 93   25 9 19.3 99.00     Mostly Cloudy
10:00 3.7 -0.5 74   27 20 24.1 99.00     Mostly Cloudy
11:00 4.4 -1.0 68   26 22 24.1 98.97     Mostly Cloudy
12:00 5.0 -0.4 68   27 24 24.1 98.89     Mostly Cloudy
13:00 5.3 -1.5 61   26 26 24.1 98.82     Mostly Cloudy
14:00 4.6 -1.2 66   27 15 24.1 98.80     Mostly Cloudy
15:00 4.7 -1.3 65   26 19 24.1 98.79     Mostly Cloudy
16:00 3.8 -1.6 68   26 11 24.1 98.79     Mostly Cloudy
17:00 3.5 -1.3 71   28 6 19.3 98.82     Cloudy
18:00 2.7 -0.8 78   25 6 15.0 98.84      
19:00 2.6 -1.0 77   23 7 15.0 98.84      
20:00 2.4 -1.0 78   25 7 15.0 98.85      
21:00 1.6 -1.2 82   23 4 15.0 98.87      
22:00 0.3 -1.8 86   25 4 15.0 98.89      
23:00 -1.4 -3.0 89     0 15.0 98.87      

Notes on Data Quality.

Legend

  • E = Estimated
  • M = Missing
  • NA = Not Available*
  • [empty] = Indicates an unobserved value
Date modified: